Location: Muenchen
(48.1800°N, 11.5800°E)
Time: 02:19:27
(UTC+01:00)

ISS - All Passes

Search period start: 07 February 2016 00:00
Search period end: 17 February 2016 00:00
Orbit: 399 x 408 km, 51.6° (Epoch: 06 February)

Date Brightness Start Highest point End Pass type
(mag) Time Alt. Az. Time Alt. Az. Time Alt. Az.
07 Feb - 16:20:23 10° SSE 16:21:29 11° SE 16:22:34 10° ESE daylight
07 Feb - 17:54:10 10° SW 17:57:22 60° SSE 18:00:35 10° ENE visible
07 Feb - 19:30:45 10° W 19:33:55 48° N 19:37:05 10° ENE visible
07 Feb - 21:07:31 10° WNW 21:10:42 50° N 21:13:53 10° E visible
07 Feb - 22:44:02 10° WNW 22:47:12 50° SSW 22:50:21 10° SE night (unlit)
08 Feb - 17:01:53 10° SW 17:04:53 36° SSE 17:07:55 10° ENE daylight
08 Feb - 18:38:03 10° W 18:41:16 58° NNW 18:44:30 10° ENE visible
08 Feb - 20:14:54 10° WNW 20:18:03 44° N 20:21:12 10° E visible
08 Feb - 21:51:26 10° WNW 21:54:41 80° SSW 21:57:56 10° ESE night (unlit)
08 Feb - 23:28:38 10° W 23:30:44 16° SW 23:32:49 10° S night (unlit)
09 Feb - 16:09:52 10° SSW 16:12:29 22° SE 16:15:05 10° E daylight
09 Feb - 17:45:25 10° WSW 17:48:40 80° NNW 17:51:55 10° ENE daylight
09 Feb - 19:22:15 10° WNW 19:25:22 43° N 19:28:29 10° ENE visible
09 Feb - 20:58:51 10° WNW 21:02:06 71° NNE 21:05:21 10° ESE visible
09 Feb - 22:35:34 10° W 22:38:21 26° SW 22:41:08 10° SSE night (unlit)
10 Feb - 15:18:26 10° SSE 15:20:07 13° SE 15:21:48 10° ESE daylight
10 Feb - 16:52:51 10° WSW 16:56:05 69° SSE 16:59:19 10° ENE daylight
10 Feb - 18:29:31 10° W 18:32:40 46° N 18:35:50 10° ENE visible
10 Feb - 20:06:16 10° WNW 20:09:27 54° NNE 20:12:39 10° E visible
10 Feb - 21:42:47 10° WNW 21:45:53 43° SSW 21:48:59 10° SE night (unlit)
11 Feb - 16:00:27 10° SW 16:03:33 43° SSE 16:06:40 10° ENE daylight
11 Feb - 17:36:47 10° W 17:39:59 54° NNW 17:43:12 10° ENE daylight
11 Feb - 19:13:37 10° WNW 19:16:47 45° N 19:19:55 10° E visible
11 Feb - 20:50:07 10° WNW 20:53:21 70° SSW 20:56:36 10° ESE visible
11 Feb - 22:27:37 10° WSW 22:29:20 14° SW 22:31:02 10° SSW night (unlit)
12 Feb - 15:08:18 10° SSW 15:11:04 26° SE 15:13:51 10° E daylight
12 Feb - 16:44:04 10° WSW 16:47:19 72° NNW 16:50:35 10° ENE daylight
12 Feb - 18:20:55 10° WNW 18:24:03 43° N 18:27:10 10° ENE visible
12 Feb - 19:57:30 10° WNW 20:00:45 79° NNE 20:04:00 10° ESE visible
12 Feb - 21:34:19 10° W 21:36:56 22° SW 21:39:32 10° SSE night (unlit)
13 Feb - 14:16:35 10° S 14:18:39 16° SE 14:20:44 10° E daylight
13 Feb - 15:51:26 10° WSW 15:54:41 79° SSE 15:57:57 10° ENE daylight
13 Feb - 17:28:10 10° W 17:31:19 44° N 17:34:28 10° ENE daylight
13 Feb - 19:04:52 10° WNW 19:08:05 58° NNE 19:11:19 10° E visible
13 Feb - 20:41:26 10° WNW 20:44:28 37° SSW 20:47:29 10° SE visible
14 Feb - 14:58:56 10° SW 15:02:06 50° SSE 15:05:16 10° ENE daylight
14 Feb - 16:35:24 10° W 16:38:35 51° N 16:41:46 10° ENE daylight
14 Feb - 18:12:12 10° WNW 18:15:22 47° N 18:18:32 10° E visible
14 Feb - 19:48:42 10° WNW 19:51:55 60° SSW 19:55:07 10° SE visible
14 Feb - 21:26:40 10° WSW 21:27:49 11° SW 21:28:57 10° SSW visible
15 Feb - 14:06:39 10° SSW 14:09:34 30° SE 14:12:29 10° E daylight
15 Feb - 15:42:38 10° W 15:45:52 65° NNW 15:49:06 10° ENE daylight
15 Feb - 17:19:29 10° WNW 17:22:37 43° N 17:25:45 10° ENE daylight
15 Feb - 18:56:01 10° WNW 18:59:17 88° N 19:02:32 10° ESE visible
15 Feb - 20:33:00 10° W 20:35:24 19° SW 20:37:48 10° S visible
16 Feb - 13:14:43 10° S 13:17:05 19° SE 13:19:27 10° E daylight
16 Feb - 14:49:55 10° WSW 14:53:11 89° SSE 14:56:26 10° ENE daylight
16 Feb - 16:26:42 10° WNW 16:29:51 43° N 16:32:59 10° ENE daylight
16 Feb - 18:03:21 10° WNW 18:06:36 63° NNE 18:09:49 10° E visible
16 Feb - 19:39:58 10° W 19:42:55 31° SW 19:45:50 10° SSE visible
